Stations météo

réclame
Mon MeteoGroup
St-Girons, France (7627): Température de l'air & dewpoint: 13.12.2018 15:00:00 - 19.12.2018 15:00:00 (CET)St-Girons, France (7627): Température de l'air 5cm: 13.12.2018 15:00:00 - 19.12.2018 15:00:00 (CET)St-Girons, France (7627): Température de l'air -20cm & Température de l'air -100cm: 13.12.2018 15:00:00 - 19.12.2018 15:00:00 (CET)St-Girons, France (7627): Vitesse du vent & gusts: 13.12.2018 15:00:00 - 19.12.2018 15:00:00 (CET)St-Girons, France (7627): Direction du vent: 13.12.2018 15:00:00 - 19.12.2018 15:00:00 (CET)St-Girons, France (7627): reduced air pressure: 13.12.2018 15:00:00 - 19.12.2018 15:00:00 (CET)St-Girons, France (7627): visibility: 13.12.2018 15:00:00 - 19.12.2018 15:00:00 (CET)St-Girons, France (7627): Ensoleillement: 13.12.2018 15:00:00 - 19.12.2018 15:00:00 (CET)St-Girons, France (7627): Quantités de précipitations: 13.12.2018 15:00:00 - 19.12.2018 15:00:00 (CET)
Date & Time tt [°C] td [°C] tt 5cm [°C] tt -20cm [°C] tt -100cm [°C] ff [km/h] ff [knt] fx [km/h] fx [knt] dd ppp [hPa] vv [km] sd [min] rr [mm]
19.12.2018 15:00:00 - - - - - - - - - - - - - -
19.12.2018 14:00:00 12,9 5,1 16,2 9,4 11,9 12 7 18 10 NW 1017,6 20 60 0,0
19.12.2018 13:00:00 12,2 4,2 14,2 9,4 11,9 4 2 17 9 NNW 1017,7 20 60 0,0
19.12.2018 12:00:00 10,3 4,6 14,2 9,4 11,9 12 7 17 9 W 1018,6 20 60 0,0
19.12.2018 11:00:00 10,3 4,9 10,3 9,5 11,9 5 3 10 5 E 1018,0 20 60 0,0
19.12.2018 10:00:00 5,2 3,5 3,1 9,5 11,9 2 1 12 7 WNW 1019,0 20 48 0,0
19.12.2018 09:00:00 2,8 2,2 1,4 9,6 12,0 0 0 6 3 N 1019,8 12 0 0,0
19.12.2018 08:00:00 1,6 1,0 -1,5 9,6 11,9 3 2 8 4 W 1020,2 7 0 0,0
19.12.2018 07:00:00 0,8 -0,1 -1,5 9,6 11,9 2 1 8 4 WSW 1019,9 1,1 0 0,0
19.12.2018 06:00:00 2,5 1,8 -0,2 9,6 11,9 0 0 10 5 N 1019,6 6 0 0,0
19.12.2018 05:00:00 3,0 2,0 -0,1 9,6 12,0 0 0 5 3 N 1019,4 0,6 0 0,0
19.12.2018 04:00:00 4,7 3,4 3,1 9,6 12,0 3 2 11 6 NNE 1019,4 14 0 0,0
19.12.2018 03:00:00 5,6 4,1 4,8 9,6 12,0 4 2 10 5 ESE 1019,7 18 0 0,0
19.12.2018 02:00:00 5,8 4,3 4,7 9,7 12,0 5 3 13 7 NW 1019,4 20 0 0,0
19.12.2018 01:00:00 5,7 4,2 5,0 9,6 12,0 4 2 7 4 ESE 1019,0 19 0 0,0
19.12.2018 00:00:00 5,7 3,9 4,9 9,6 12,0 0 0 9 5 N 1019,4 19 0 0,0
18.12.2018 23:00:00 5,9 3,9 4,7 9,7 12,0 4 2 11 6 W 1019,1 20 0 0,0
18.12.2018 22:00:00 6,4 4,1 4,6 9,7 12,0 4 2 13 7 E 1017,9 20 0 0,0
18.12.2018 21:00:00 6,0 3,8 4,6 9,7 12,0 5 3 13 7 SSE 1018,1 20 0 0,0
18.12.2018 20:00:00 6,0 4,0 4,0 9,7 12,0 5 3 13 7 SE 1018,2 20 0 0,0
18.12.2018 19:00:00 6,4 4,1 4,3 9,6 12,0 4 2 12 7 S 1017,5 20 0 0,0
18.12.2018 18:00:00 7,7 4,6 5,2 9,6 12,0 7 4 18 10 ESE 1016,2 20 0 0,0
18.12.2018 17:00:00 9,0 4,8 7,0 9,6 12,0 4 2 15 8 SE 1015,9 20 0 0,0
18.12.2018 16:00:00 10,7 5,0 10,7 9,5 12,0 6 4 13 7 ESE 1015,3 20 17 0,0
18.12.2018 15:00:00 11,1 5,0 12,0 9,5 12,0 6 4 12 7 SSE 1015,2 20 35 0,0
18.12.2018 14:00:00 11,1 4,5 10,3 9,5 12,0 9 5 21 11 SSE 1015,9 20 13 0,0
18.12.2018 13:00:00 9,6 2,4 10,4 9,6 12,0 11 6 26 14 E 1016,9 20 43 0,0
18.12.2018 12:00:00 8,9 1,5 9,1 9,6 12,0 13 7 29 16 ESE 1017,9 20 53 -
18.12.2018 11:00:00 7,1 0,1 6,7 9,7 12,0 14 8 28 15 ESE 1019,1 - 60 -
18.12.2018 10:00:00 5,4 -0,2 3,7 9,8 12,0 17 9 33 18 ESE 1019,8 20 27 0,0
18.12.2018 09:00:00 4,2 -1,2 2,0 9,8 12,0 16 9 30 16 SE 1020,6 20 1 0,0
18.12.2018 08:00:00 3,0 -1,4 1,9 9,9 12,0 14 8 31 17 ESE 1021,5 20 0 0,0
18.12.2018 07:00:00 3,3 -1,3 1,6 9,9 12,0 16 9 27 15 SE 1022,1 20 0 0,0
18.12.2018 06:00:00 3,5 -1,1 1,7 10,0 12,0 14 8 33 18 ESE 1022,5 20 0 0,0
18.12.2018 05:00:00 3,1 -0,7 -3,4 10,0 12,0 16 9 25 14 SE 1022,9 20 0 0,0
18.12.2018 04:00:00 -0,6 -1,7 -3,2 10,1 12,0 0 0 10 5 N 1024,9 20 0 0,0
18.12.2018 03:00:00 0,7 -1,1 -1,6 10,1 12,0 5 3 8 4 SSE 1026,2 20 0 0,0
18.12.2018 02:00:00 2,8 -0,3 0,6 10,1 12,0 3 2 28 15 SW 1025,8 20 0 0,0
18.12.2018 01:00:00 3,9 0,6 2,8 10,2 12,0 18 10 29 16 SE 1026,2 20 0 0,0
18.12.2018 00:00:00 4,0 1,0 2,9 10,3 12,0 13 7 31 17 SE 1027,0 20 0 0,0
17.12.2018 23:00:00 4,4 1,4 2,8 10,3 12,0 21 11 27 15 SSE 1027,9 20 0 0,0
17.12.2018 22:00:00 5,0 2,0 2,6 10,3 12,0 12 7 18 10 SE 1028,3 20 0 0,0
17.12.2018 21:00:00 4,5 1,7 2,7 10,3 12,0 9 5 19 11 SE 1029,2 20 0 0,0
17.12.2018 20:00:00 4,9 2,9 2,1 10,3 12,0 12 6 17 9 SE 1029,8 20 0 0,0
17.12.2018 19:00:00 5,8 3,8 2,1 10,2 12,0 10 6 14 7 SE 1030,0 20 0 0,0
17.12.2018 18:00:00 5,4 2,9 2,7 10,2 12,0 5 3 8 4 W 1030,1 20 0 0,0
17.12.2018 17:00:00 9,2 4,6 7,7 10,2 12,0 0 0 5 3 N 1028,9 20 26 0,0
17.12.2018 16:00:00 10,3 3,1 11,0 10,1 12,0 2 1 11 6 NNW 1028,8 20 5 0,0
17.12.2018 15:00:00 10,5 3,3 11,2 10,0 12,0 8 4 19 10 NW 1028,6 20 28 0,0
17.12.2018 14:00:00 11,0 3,3 13,4 10,0 12,0 11 6 19 10 NW 1028,3 20 60 0,0
17.12.2018 13:00:00 11,8 4,7 15,3 10,1 12,0 0 0 9 5 N 1028,4 20 54 0,0
17.12.2018 12:00:00 10,3 4,6 8,3 10,1 12,0 3 1 8 4 NNE 1029,5 20 36 0,0
17.12.2018 11:00:00 7,4 4,9 6,3 10,2 12,0 3 2 9 5 ENE 1031,0 20 0 0,0
17.12.2018 10:00:00 5,5 4,5 3,2 10,1 12,0 3 1 8 4 S 1030,7 20 0 0,0
17.12.2018 09:00:00 4,3 3,4 1,2 10,2 12,1 4 2 6 3 SSW 1029,9 20 0 0,0
17.12.2018 08:00:00 5,6 3,3 3,3 10,3 12,1 4 2 16 9 ENE 1028,8 20 0 0,0
17.12.2018 07:00:00 6,3 3,6 4,9 10,3 12,0 5 3 18 10 WNW 1028,3 20 0 0,2
17.12.2018 06:00:00 6,6 3,6 4,6 10,3 12,0 12 6 32 18 W 1027,6 20 0 0,4
17.12.2018 05:00:00 6,8 3,8 5,4 10,3 12,0 6 3 41 22 W 1026,9 13 0 0,8
17.12.2018 04:00:00 7,7 3,2 3,9 10,4 12,1 14 8 29 16 W 1025,9 19 0 0,0
17.12.2018 03:00:00 6,2 2,5 3,9 10,4 12,1 6 3 30 16 WNW 1026,2 20 0 0,2
17.12.2018 02:00:00 5,6 3,4 4,4 10,4 12,1 3 1 36 20 NW 1026,1 16 0 0,4
17.12.2018 01:00:00 5,9 3,4 4,9 10,4 12,1 24 13 40 21 W 1025,2 8 0 1,4
17.12.2018 00:00:00 6,2 3,9 5,1 10,4 12,1 11 6 35 19 NW 1024,5 17 0 0,4
16.12.2018 23:00:00 8,2 2,4 5,8 10,5 12,1 22 12 46 25 W 1022,9 20 0 0,0
16.12.2018 22:00:00 7,9 3,4 5,8 10,4 12,0 20 11 47 25 W 1022,0 20 0 0,4
16.12.2018 21:00:00 8,6 3,4 6,0 10,4 12,1 24 13 55 30 WNW 1021,0 20 0 0,0
16.12.2018 20:00:00 8,3 2,9 5,9 10,4 12,0 23 12 64 35 WSW 1020,0 20 0 1,8
16.12.2018 19:00:00 8,3 6,1 7,1 10,3 12,1 3 2 27 15 W 1018,2 20 0 0,4
16.12.2018 18:00:00 8,7 5,8 7,4 10,3 12,1 18 10 80 43 WNW 1017,4 20 0 1,7
16.12.2018 17:00:00 10,5 9,4 10,1 10,3 12,1 14 7 31 17 NW 1015,7 4,2 0 3,4
16.12.2018 16:00:00 11,7 9,4 10,8 10,2 12,1 6 3 17 9 W 1013,4 12 0 0,2
16.12.2018 15:00:00 12,5 9,7 12,5 10,2 12,1 2 1 10 5 NNE 1011,8 20 0 0,0
16.12.2018 14:00:00 12,4 9,4 12,8 10,1 12,1 7 4 15 8 E 1011,2 20 14 0,0
16.12.2018 13:00:00 11,8 9,4 9,9 10,1 12,1 8 4 19 10 E 1012,7 20 3 0,0
16.12.2018 12:00:00 10,0 9,2 10,0 10,1 12,1 11 6 17 9 SSE 1015,1 14 0 0,6
16.12.2018 11:00:00 10,0 9,1 9,7 10,1 12,1 0 0 6 3 N 1017,1 6 0 2,0
16.12.2018 10:00:00 9,8 8,9 9,3 10,1 12,1 4 2 8 5 W 1016,8 6 0 0,2
16.12.2018 09:00:00 9,6 8,5 9,2 10,1 12,1 0 0 12 6 N 1016,8 9 0 0,4
16.12.2018 08:00:00 9,8 8,4 9,3 10,0 12,1 3 1 8 5 WSW 1016,5 13 0 0,0
16.12.2018 07:00:00 10,1 8,7 9,6 10,1 12,1 4 2 10 5 SSE 1016,3 20 0 0,0
16.12.2018 06:00:00 10,3 8,6 9,8 10,0 12,1 6 4 11 6 SE 1016,7 20 0 0,0
16.12.2018 05:00:00 10,8 8,4 10,1 10,0 12,1 3 1 15 8 SE 1017,5 20 0 0,0
16.12.2018 04:00:00 10,4 8,5 9,1 10,0 12,2 9 5 23 12 W 1018,2 20 0 0,0
16.12.2018 03:00:00 9,4 8,2 8,6 10,0 12,1 5 3 10 5 ESE 1018,4 20 0 0,0
16.12.2018 02:00:00 9,0 7,8 8,5 10,0 12,2 4 2 5 3 WNW 1018,9 20 0 0,0
16.12.2018 01:00:00 9,3 7,9 8,5 10,0 12,2 6 3 8 5 SSE 1018,1 20 0 0,0
16.12.2018 00:00:00 9,3 8,1 8,3 10,0 12,2 9 5 14 7 WNW 1018,6 20 0 0,0
15.12.2018 23:00:00 9,0 7,4 7,0 10,0 12,2 2 1 18 10 SW 1017,4 20 0 0,0
15.12.2018 22:00:00 10,6 7,8 9,4 9,9 12,1 11 6 26 14 SSE 1016,7 20 0 0,0
15.12.2018 21:00:00 10,2 8,3 7,6 9,9 12,2 9 5 18 10 SSE 1017,2 20 0 0,0
15.12.2018 20:00:00 9,8 7,0 8,0 9,9 12,2 4 2 19 11 SSW 1017,6 20 0 0,0
15.12.2018 19:00:00 11,3 7,8 10,0 9,8 12,2 16 8 21 12 SE 1017,4 20 0 0,0
15.12.2018 18:00:00 11,4 6,9 9,4 9,8 12,2 13 7 20 11 SE 1018,4 20 0 0,0
15.12.2018 17:00:00 11,7 6,4 10,5 9,7 12,2 0 0 8 4 N 1018,6 20 0 0,0
15.12.2018 16:00:00 12,4 6,4 12,4 9,7 12,2 3 2 6 3 ESE 1018,3 20 1 0,0
15.12.2018 15:00:00 12,8 5,9 12,9 9,7 12,2 3 2 6 3 SE 1018,3 20 11 0,0
15.12.2018 14:00:00 11,2 5,5 11,5 9,7 12,2 6 3 13 7 SE 1018,8 20 0 0,0
15.12.2018 13:00:00 10,4 4,7 10,1 9,7 12,2 7 4 13 7 SE 1020,1 20 3 0,0
15.12.2018 12:00:00 8,8 5,2 9,1 9,7 12,2 0 0 9 5 N 1021,3 20 0 0,0
15.12.2018 11:00:00 8,2 4,0 6,7 9,7 12,2 5 3 15 8 SE 1021,8 20 0 0,0
15.12.2018 10:00:00 6,6 3,6 4,9 9,8 12,2 8 4 24 13 SE 1022,0 20 0 0,0
15.12.2018 09:00:00 4,9 3,1 3,3 9,8 12,2 3 2 14 8 SE 1022,5 20 0 0,0
15.12.2018 08:00:00 4,6 2,5 0,5 9,8 12,2 6 3 19 10 SSE 1022,6 20 0 0,0
15.12.2018 07:00:00 3,8 1,3 -0,1 9,9 12,2 4 2 23 13 SE 1022,7 20 0 0,0
15.12.2018 06:00:00 3,0 1,8 -0,5 9,9 12,2 11 6 18 10 S 1023,5 4,3 0 0,0
15.12.2018 05:00:00 2,6 1,9 -0,1 9,9 12,2 2 1 9 5 SW 1023,9 8 0 0,0
15.12.2018 04:00:00 3,7 2,7 0,6 9,9 12,2 3 1 9 5 SSE 1023,7 20 0 0,0
15.12.2018 03:00:00 4,6 3,1 1,8 9,9 12,2 6 4 10 6 SE 1023,4 20 0 0,0
15.12.2018 02:00:00 6,4 5,0 5,4 9,9 12,2 3 2 9 5 SE 1023,7 20 0 0,0
15.12.2018 01:00:00 6,6 5,2 5,7 9,9 12,2 3 1 6 3 SSW 1024,0 20 0 0,0
15.12.2018 00:00:00 6,9 5,4 6,0 9,9 12,2 4 2 6 3 SSE 1023,9 19 0 0,0
14.12.2018 23:00:00 7,1 5,2 6,1 9,9 12,2 2 1 10 6 NW 1023,9 20 0 0,2
14.12.2018 22:00:00 7,3 5,3 6,4 9,9 12,2 4 2 13 7 W 1023,9 20 0 0,0
14.12.2018 21:00:00 7,4 5,4 6,4 9,9 12,3 4 2 16 9 W 1023,9 20 0 0,2
14.12.2018 20:00:00 8,1 4,9 6,8 9,8 12,2 13 7 22 12 WNW 1023,2 12 0 0,2
14.12.2018 19:00:00 8,9 3,9 7,9 9,8 12,2 9 5 26 14 W 1022,2 20 0 0,0
14.12.2018 18:00:00 8,9 3,9 8,1 9,8 12,3 11 6 28 15 W 1022,1 20 0 0,0
14.12.2018 17:00:00 8,9 4,3 8,3 9,8 12,3 16 9 41 22 WNW 1022,1 20 0 0,0
14.12.2018 16:00:00 9,3 4,7 8,6 9,8 12,3 21 11 39 21 WNW 1021,2 20 0 0,0
14.12.2018 15:00:00 9,4 5,4 8,7 9,7 12,3 18 10 28 15 WNW 1019,7 20 0 0,0
14.12.2018 14:00:00 9,0 6,3 8,4 9,8 12,3 13 7 31 17 WNW 1019,2 20 0 0,2
14.12.2018 13:00:00 8,9 6,3 8,0 9,8 12,3 13 7 28 15 WNW 1019,0 16 0 0,0
14.12.2018 12:00:00 8,9 5,8 8,7 9,8 12,3 14 8 26 14 WNW 1019,0 20 0 0,0
14.12.2018 11:00:00 8,4 5,9 8,1 9,8 12,3 11 6 28 15 NW 1018,8 20 0 0,0
14.12.2018 10:00:00 8,3 5,9 6,0 9,8 12,3 13 7 24 13 WNW 1017,9 20 0 0,0
14.12.2018 09:00:00 5,9 5,2 5,6 9,8 12,3 3 1 5 3 NNE 1017,0 16 0 0,0
14.12.2018 08:00:00 5,7 4,8 5,5 9,8 12,3 3 1 7 4 SE 1015,9 20 0 0,0
14.12.2018 07:00:00 5,7 4,7 5,5 9,8 12,4 3 2 8 4 SE 1015,5 20 0 0,9
14.12.2018 06:00:00 6,5 5,6 6,3 9,9 12,3 0 0 14 8 N 1014,7 3,2 0 3,6
14.12.2018 05:00:00 6,6 5,7 6,4 9,9 12,4 7 4 21 11 NW 1014,5 4,4 0 2,4
14.12.2018 04:00:00 6,8 6,2 5,4 9,9 12,4 9 5 21 11 NNW 1014,1 3,8 0 3,6
14.12.2018 03:00:00 5,5 4,6 5,4 9,9 12,4 5 3 12 7 ENE 1013,7 4,9 0 4,5
14.12.2018 02:00:00 5,9 5,0 5,7 9,9 12,4 4 2 9 5 E 1012,9 6 0 3,6
14.12.2018 01:00:00 6,4 5,5 6,0 10,0 12,4 4 2 13 7 SSE 1012,3 7 0 2,4
14.12.2018 00:00:00 6,5 5,6 6,1 9,9 12,4 3 2 6 3 E 1012,1 6 0 2,0
13.12.2018 23:00:00 6,4 5,3 6,0 10,0 12,4 0 0 7 4 N 1011,4 7 0 2,3
13.12.2018 22:00:00 6,6 5,5 6,1 10,0 12,4 3 1 11 6 ENE 1010,8 8 0 1,8
13.12.2018 21:00:00 6,9 5,2 6,2 10,0 12,4 4 2 30 16 NNE 1010,1 7 0 1,8
13.12.2018 20:00:00 7,6 4,9 6,4 10,0 12,4 19 10 40 21 W 1009,2 8 0 2,8
13.12.2018 19:00:00 7,0 5,8 6,6 10,0 12,4 3 2 13 7 NNW 1008,0 7 0 2,6
13.12.2018 18:00:00 7,1 6,0 6,7 10,0 12,5 5 3 16 8 SE 1007,4 7 0 1,8
13.12.2018 17:00:00 7,1 6,2 6,8 10,0 12,5 5 3 9 5 SE 1006,9 6 0 0,9
13.12.2018 16:00:00 7,1 6,2 7,1 10,0 12,5 4 2 6 3 SE 1006,4 8 0 0,8
13.12.2018 15:00:00 7,1 6,2 7,2 10,0 12,5 2 1 5 3 ESE 1006,3 4,5 0 1,6

tt = Température de l'air
td = dewpoint
tt 5cm = Température de l'air 5cm
tt -20cm = Température de l'air -20cm
tt -100cm = Température de l'air -100cm
ff = Vitesse du vent
fx = gusts
dd = Direction du vent
ppp = reduced air pressure
vv = visibility
sd = Ensoleillement
rr = Quantités de précipitations

stations d'obs. à proximité